Date String (YYYY-MM-DD hh:mm:ss) UTC,Instrument flags,absolute air pressure of the measurement (hPa),sample flow rate (lpm),inlet stack bypass flow (lpm),air temperature of the measurement (°C),ambient temperature measured by the external sensor (°C),aerosol sample conditioner tube jacket temperature (°C),OPC LED temperature (°C),internal box temperature (°C),relative humidity of the measurement (%),span deviation,mass concentration of particles derived from Lorenz-Mie calculation of OPC scattering (μg/m³),mass concentration of particles derived from Lorenz-Mie calculation of OPC scattering (μg/m³),mass concentration of particles derived from Lorenz-Mie calculation of OPC scattering (μg/m³)
DateTimeUTC,F1_M11,P_M11,Q1_M11,Q2_M11,T1_M11,T2_M11,T3_M11,T4_M11,T5_M11,U1_M11,ZSPAN_M11,X0_M11,X2_M11,X1_M11
2023-06-11 20:00:00,SystemResetWarning,0832.0,5.00,000.00,030.0,025.3,000.0,038.4,031.4,27.1,0000.0,0007.32,0004.53,0004.15
2023-06-11 20:01:00,SystemResetWarning,0831.9,5.02,000.00,029.9,025.6,000.0,038.4,031.1,27.6,-000.1,0007.35,0004.53,0004.13
2023-06-11 20:02:00,SystemResetWarning,0831.9,4.99,000.00,029.8,026.0,000.0,038.4,031.1,27.6,-000.0,0007.36,0004.53,0004.13
2023-06-11 20:03:00,SystemResetWarning,0831.9,4.99,000.00,029.8,026.4,000.0,038.4,031.1,27.6,0000.0,0007.38,0004.54,0004.15
2023-06-11 20:04:00,SystemResetWarning,0831.9,5.01,000.00,029.7,026.8,000.0,038.4,031.2,27.6,0000.0,0007.50,0004.55,0004.15
2023-06-11 20:05:00,SystemResetWarning,0831.9,5.01,000.00,029.7,027.1,000.0,038.3,031.2,27.8,0000.0,0007.61,0004.57,0004.14
2023-06-11 20:06:00,SystemResetWarning,0831.9,5.00,000.00,029.7,027.4,000.0,038.3,031.2,28.4,0000.0,0007.58,0004.53,0004.11
2023-06-11 20:07:00,SystemResetWarning,0831.9,5.00,000.00,029.7,027.6,000.0,038.3,031.2,28.1,0000.0,0007.54,0004.49,0004.09
2023-06-11 20:08:00,SystemResetWarning,0831.9,5.01,000.00,029.7,027.8,000.0,038.3,031.2,27.8,0000.0,0007.52,0004.49,0004.08
2023-06-11 20:09:00,SystemResetWarning,0831.9,4.99,000.00,029.8,027.9,000.0,038.3,031.3,28.2,0000.0,0007.44,0004.45,0004.04
2023-06-11 20:10:00,SystemResetWarning,0831.9,5.00,000.00,029.8,028.0,000.0,038.3,031.3,27.4,0000.0,0007.40,0004.44,0004.04
2023-06-11 20:11:00,SystemResetWarning,0831.9,4.99,000.00,029.8,028.1,000.0,038.3,031.3,27.6,0000.0,0007.37,0004.45,0004.05
2023-06-11 20:12:00,SystemResetWarning,0831.9,5.00,000.00,029.8,028.2,000.0,038.3,031.4,27.3,0000.0,0007.33,0004.46,0004.09
2023-06-11 20:13:00,SystemResetWarning,0831.9,5.01,000.00,029.8,028.3,000.0,038.3,031.4,27.3,0000.0,0007.38,0004.49,0004.13
2023-06-11 20:14:00,SystemResetWarning,0831.9,5.00,000.00,029.8,028.3,000.0,038.4,031.4,27.4,0000.0,0007.39,0004.50,0004.15
2023-06-11 20:15:00,SystemResetWarning,0832.1,4.98,000.00,029.9,028.4,000.0,038.4,031.4,27.2,0000.0,0007.37,0004.55,0004.21
2023-06-11 20:16:00,SystemResetWarning,0831.9,4.99,000.00,029.9,028.4,000.0,038.4,031.4,27.1,0000.0,0007.26,0004.59,0004.28
2023-06-11 20:17:00,SystemResetWarning,0832.0,5.01,000.00,029.9,028.5,000.0,038.4,031.5,27.4,0000.0,0007.28,0004.65,0004.33
2023-06-11 20:18:00,SystemResetWarning,0832.3,5.00,000.00,029.9,028.5,000.0,038.4,031.5,27.4,0000.0,0007.38,0004.71,0004.38
2023-06-11 20:19:00,SystemResetWarning,0832.1,4.99,000.00,030.0,028.5,000.0,038.4,031.5,27.5,0000.0,0007.48,0004.73,0004.39
2023-06-11 20:20:00,SystemResetWarning,0832.2,4.99,000.00,030.0,028.6,000.0,038.4,031.5,28.0,0000.0,0007.57,0004.75,0004.41
2023-06-11 20:21:00,SystemResetWarning,0831.9,5.02,000.00,030.0,028.6,000.0,038.4,031.6,28.3,0000.0,0007.55,0004.72,0004.41
2023-06-11 20:22:00,SystemResetWarning,0831.7,5.00,000.00,030.0,028.6,000.0,038.5,031.6,28.2,0000.0,0007.60,0004.74,0004.40
2023-06-11 20:23:00,SystemResetWarning,0832.1,5.00,000.00,030.0,028.6,000.0,038.5,031.6,27.9,0000.0,0007.70,0004.77,0004.41
2023-06-11 20:24:00,SystemResetWarning,0832.2,4.99,000.00,030.1,027.0,000.0,038.5,031.6,27.6,0000.0,0007.78,0004.80,0004.43
2023-06-11 20:25:00,SystemResetWarning,0832.1,5.00,000.00,030.0,025.4,000.0,038.4,031.6,27.5,0000.0,0007.81,0004.85,0004.48
2023-06-11 20:26:00,SystemResetWarning,0832.0,5.01,000.00,030.0,025.3,000.0,038.4,031.4,27.5,0000.0,0007.81,0004.87,0004.49
2023-06-11 20:27:00,SystemResetWarning,0832.0,5.01,000.00,029.9,025.6,000.0,038.4,031.1,28.1,0000.0,0007.81,0004.84,0004.48
2023-06-11 20:28:00,SystemResetWarning,0832.2,5.01,000.00,029.8,026.0,000.0,038.4,031.1,28.2,0000.0,0008.10,0004.82,0004.47
2023-06-11 20:29:00,SystemResetWarning,0832.2,5.00,000.00,029.7,026.4,000.0,038.4,031.1,28.4,0000.0,0008.22,0004.80,0004.45
2023-06-11 20:30:00,SystemResetWarning,0831.8,5.00,000.00,029.7,026.8,000.0,038.3,031.1,28.5,0000.0,0008.50,0004.80,0004.47
2023-06-11 20:31:00,SystemResetWarning,0832.2,4.99,000.00,029.7,027.1,000.0,038.3,031.1,28.4,0000.0,0009.06,0004.88,0004.52
2023-06-11 20:32:00,SystemResetWarning,0832.2,5.00,000.00,029.7,027.3,000.0,038.3,031.1,28.0,0000.0,0009.10,0004.95,0004.58
2023-06-11 20:33:00,SystemResetWarning,0832.1,5.00,000.00,029.7,027.5,000.0,038.3,031.2,28.0,0000.0,0009.17,0005.03,0004.67
2023-06-11 20:34:00,SystemResetWarning,0832.2,5.00,000.00,029.7,027.7,000.0,038.3,031.2,28.1,0000.0,0009.45,0005.05,0004.73
2023-06-11 20:35:00,SystemResetWarning,0832.2,5.00,000.00,029.7,027.9,000.0,038.3,031.2,28.1,0000.0,0009.52,0005.07,0004.75
2023-06-11 20:36:00,SystemResetWarning,0832.2,4.99,000.00,029.8,028.0,000.0,038.3,031.2,28.0,0000.0,0009.49,0005.06,0004.75
2023-06-11 20:37:00,SystemResetWarning,0832.1,5.00,000.00,029.8,028.1,000.0,038.3,031.3,28.0,0000.0,0009.60,0005.10,0004.77
2023-06-11 20:38:00,SystemResetWarning,0831.8,5.01,000.00,029.8,028.2,000.0,038.3,031.3,28.0,0000.0,0009.67,0005.14,0004.80
2023-06-11 20:39:00,SystemResetWarning,0831.7,5.00,000.00,029.8,028.3,000.0,038.3,031.3,28.3,0000.0,0009.52,0005.19,0004.83
2023-06-11 20:40:00,SystemResetWarning,0831.7,5.01,000.00,029.8,028.3,000.0,038.3,031.4,27.9,0000.0,0009.42,0005.25,0004.89
2023-06-11 20:41:00,SystemResetWarning,0831.7,5.00,000.00,029.8,028.4,000.0,038.3,031.4,27.9,-000.1,0009.52,0005.35,0004.95
2023-06-11 20:42:00,SystemResetWarning,0831.7,5.00,000.00,029.9,028.4,000.0,038.4,031.4,28.1,-000.4,0008.65,0005.36,0004.96
2023-06-11 20:43:00,SystemResetWarning,0831.7,5.00,000.00,029.9,028.5,000.0,038.4,031.4,28.0,-000.8,0008.57,0005.34,0004.96
2023-06-11 20:44:00,SystemResetWarning,0831.8,4.99,000.00,029.9,028.5,000.0,038.4,031.5,28.0,-001.4,0008.54,0005.32,0004.94
2023-06-11 20:45:00,SystemResetWarning,0831.8,4.99,000.00,030.0,028.6,000.0,038.4,031.5,28.1,-001.2,0008.28,0005.33,0004.94
2023-06-11 20:46:00,SystemResetWarning,0831.7,5.00,000.00,030.0,028.6,000.0,038.4,031.5,28.0,-000.6,0008.13,0005.32,0004.94
2023-06-11 20:47:00,SystemResetWarning,0831.7,5.02,000.00,030.0,028.6,000.0,038.4,031.5,28.2,-000.9,0008.12,0005.32,0004.94
2023-06-11 20:48:00,SystemResetWarning,0831.7,5.00,000.00,030.0,028.6,000.0,038.4,031.6,27.8,-001.0,0008.08,0005.33,0004.95
2023-06-11 20:49:00,SystemResetWarning,0831.7,5.00,000.00,030.0,028.7,000.0,038.5,031.6,27.5,-000.6,0008.20,0005.37,0004.97
2023-06-11 20:50:00,SystemResetWarning,0831.7,5.00,000.00,030.1,028.7,000.0,038.5,031.6,27.4,-000.3,0008.89,0005.41,0005.00
2023-06-11 20:51:00,SystemResetWarning,0831.7,5.00,000.00,030.1,028.7,000.0,038.5,031.6,27.5,0000.0,0009.77,0005.39,0004.99
2023-06-11 20:52:00,SystemResetWarning,0831.7,5.00,000.00,030.1,028.7,000.0,038.5,031.7,27.4,0000.0,0009.83,0005.37,0004.98
2023-06-11 20:53:00,SystemResetWarning,0831.7,4.99,000.00,030.1,027.9,000.0,038.5,031.7,27.5,0000.0,0009.81,0005.35,0004.98
2023-06-11 20:54:00,SystemResetWarning,0831.7,5.00,000.00,030.1,025.9,000.0,038.5,031.6,27.4,0000.0,0010.13,0005.38,0004.98
2023-06-11 20:55:00,SystemResetWarning,0831.6,5.00,000.00,030.1,025.3,000.0,038.4,031.5,27.6,0000.0,0010.63,0005.35,0004.95
2023-06-11 20:56:00,SystemResetWarning,0831.6,5.01,000.00,030.0,025.5,000.0,038.4,031.2,28.1,0000.0,0010.53,0005.27,0004.87
2023-06-11 20:57:00,SystemResetWarning,0831.6,5.01,000.00,029.9,025.9,000.0,038.4,031.1,28.5,0000.0,0010.47,0005.20,0004.78
2023-06-11 20:58:00,SystemResetWarning,0831.6,5.00,000.00,029.8,026.3,000.0,038.4,031.1,28.1,0000.0,0011.09,0005.16,0004.72
2023-06-11 20:59:00,SystemResetWarning,0831.6,5.00,000.00,029.8,026.6,000.0,038.4,031.2,28.2,0000.0,0011.23,0005.07,0004.64
